TimeMDT,TemperatureF,Dew PointF,Humidity,Sea Level PressureIn,VisibilityMPH,Wind Direction,Wind SpeedMPH,Gust SpeedMPH,PrecipitationIn,Events,Conditions,WindDirDegrees,DateUTC
12:15 AM,39.2,30.2,70,30.06,9.0,Calm,Calm,-,N/A,,Scattered Clouds,0,2013-03-29 06:15:00
12:35 AM,39.2,30.2,70,30.06,10.0,Calm,Calm,-,N/A,,Clear,0,2013-03-29 06:35:00
12:55 AM,39.2,30.2,70,30.07,10.0,Calm,Calm,-,N/A,,Scattered Clouds,0,2013-03-29 06:55:00
1:15 AM,39.2,30.2,70,30.07,10.0,Calm,Calm,-,N/A,,Scattered Clouds,0,2013-03-29 07:15:00
1:35 AM,39.2,32.0,75,30.08,10.0,SSE,3.5,-,N/A,,Mostly Cloudy,160,2013-03-29 07:35:00
1:55 AM,39.2,32.0,75,30.08,10.0,Calm,Calm,-,N/A,,Overcast,0,2013-03-29 07:55:00
2:15 AM,39.2,32.0,75,30.08,10.0,South,3.5,-,N/A,,Overcast,190,2013-03-29 08:15:00
2:35 AM,39.2,33.8,81,30.09,10.0,SSE,4.6,-,N/A,,Overcast,150,2013-03-29 08:35:00
2:55 AM,39.2,33.8,81,30.09,10.0,Calm,Calm,-,N/A,,Overcast,0,2013-03-29 08:55:00
3:15 AM,41.0,33.8,76,30.09,10.0,NNW,5.8,-,N/A,,Overcast,340,2013-03-29 09:15:00
3:35 AM,41.0,32.0,70,30.09,10.0,Calm,Calm,-,N/A,,Overcast,0,2013-03-29 09:35:00
3:55 AM,42.8,32.0,66,30.09,10.0,Calm,Calm,-,N/A,,Overcast,0,2013-03-29 09:55:00
4:15 AM,41.0,32.0,70,30.10,10.0,NW,5.8,-,N/A,,Overcast,310,2013-03-29 10:15:00
4:35 AM,39.2,33.8,81,30.10,10.0,Calm,Calm,-,N/A,,Overcast,0,2013-03-29 10:35:00
4:55 AM,39.2,33.8,81,30.10,10.0,Calm,Calm,-,N/A,,Overcast,0,2013-03-29 10:55:00
5:15 AM,39.2,33.8,81,30.10,10.0,Calm,Calm,-,N/A,,Overcast,0,2013-03-29 11:15:00
5:35 AM,39.2,32.0,75,30.11,10.0,Calm,Calm,-,N/A,,Overcast,0,2013-03-29 11:35:00
5:55 AM,39.2,32.0,75,30.11,10.0,Calm,Calm,-,N/A,,Overcast,0,2013-03-29 11:55:00
6:15 AM,39.2,33.8,81,30.12,10.0,Calm,Calm,-,N/A,,Overcast,0,2013-03-29 12:15:00
6:35 AM,37.4,32.0,81,30.12,10.0,South,5.8,-,N/A,,Scattered Clouds,180,2013-03-29 12:35:00
6:55 AM,37.4,30.2,75,30.12,10.0,SE,4.6,-,N/A,,Clear,130,2013-03-29 12:55:00
7:15 AM,37.4,30.2,75,30.12,10.0,SE,3.5,-,N/A,,Clear,130,2013-03-29 13:15:00
7:35 AM,37.4,30.2,75,30.13,10.0,Calm,Calm,-,N/A,,Clear,0,2013-03-29 13:35:00
7:55 AM,37.4,30.2,75,30.14,10.0,Calm,Calm,-,N/A,,Partly Cloudy,0,2013-03-29 13:55:00
8:15 AM,35.6,30.2,81,30.14,10.0,NNW,3.5,-,N/A,,Mostly Cloudy,330,2013-03-29 14:15:00
8:35 AM,37.4,33.8,87,30.14,10.0,Calm,Calm,-,N/A,,Scattered Clouds,0,2013-03-29 14:35:00
8:55 AM,39.2,33.8,81,30.15,10.0,Calm,Calm,-,N/A,,Scattered Clouds,0,2013-03-29 14:55:00
9:15 AM,42.8,33.8,70,30.15,10.0,Calm,Calm,-,N/A,,Mostly Cloudy,0,2013-03-29 15:15:00
9:35 AM,42.8,33.8,70,30.15,10.0,Calm,Calm,-,N/A,,Mostly Cloudy,0,2013-03-29 15:35:00
10:15 AM,42.8,35.6,76,30.16,10.0,NW,5.8,-,N/A,,Mostly Cloudy,320,2013-03-29 16:15:00
10:55 AM,46.4,33.8,62,30.16,10.0,North,4.6,-,N/A,,Overcast,10,2013-03-29 16:55:00
11:15 AM,46.4,33.8,62,30.16,10.0,NW,4.6,-,N/A,,Overcast,320,2013-03-29 17:15:00
11:55 AM,48.2,33.8,58,30.17,10.0,NNW,4.6,-,N/A,,Overcast,330,2013-03-29 17:55:00
12:15 PM,48.2,33.8,58,30.16,10.0,Calm,Calm,-,N/A,,Overcast,0,2013-03-29 18:15:00
12:35 PM,51.8,33.8,50,30.16,10.0,Calm,Calm,-,N/A,,Mostly Cloudy,0,2013-03-29 18:35:00
12:55 PM,51.8,33.8,50,30.15,10.0,ENE,3.5,-,N/A,,Scattered Clouds,70,2013-03-29 18:55:00
1:15 PM,53.6,33.8,47,30.15,10.0,North,8.1,-,N/A,,Mostly Cloudy,360,2013-03-29 19:15:00
1:35 PM,51.8,35.6,54,30.15,10.0,North,12.7,-,N/A,,Overcast,360,2013-03-29 19:35:00
1:55 PM,50.0,35.6,58,30.16,10.0,North,9.2,-,N/A,,Mostly Cloudy,350,2013-03-29 19:55:00
2:15 PM,50.0,39.2,66,30.15,10.0,North,9.2,-,N/A,,Overcast,360,2013-03-29 20:15:00
2:35 PM,50.0,37.4,62,30.16,10.0,WSW,6.9,-,N/A,,Mostly Cloudy,240,2013-03-29 20:35:00
2:55 PM,48.2,39.2,71,30.16,8.0,SSW,3.5,-,0.01,,Overcast,210,2013-03-29 20:55:00
3:15 PM,48.2,37.4,66,30.15,10.0,SE,3.5,-,N/A,,Overcast,140,2013-03-29 21:15:00
3:35 PM,51.8,39.2,62,30.15,10.0,East,3.5,-,N/A,,Overcast,100,2013-03-29 21:35:00
3:55 PM,51.8,39.2,62,30.14,10.0,Calm,Calm,-,N/A,,Overcast,0,2013-03-29 21:55:00
4:15 PM,51.8,37.4,58,30.14,10.0,North,-9999.0,-,N/A,,Overcast,0,2013-03-29 22:15:00
4:35 PM,51.8,37.4,58,30.14,10.0,SW,6.9,-,N/A,,Overcast,230,2013-03-29 22:35:00
4:55 PM,51.8,37.4,58,30.14,10.0,Calm,Calm,-,N/A,,Overcast,0,2013-03-29 22:55:00
5:15 PM,53.6,35.6,51,30.14,10.0,Calm,Calm,-,N/A,,Mostly Cloudy,0,2013-03-29 23:15:00
5:35 PM,53.6,35.6,51,30.14,10.0,Calm,Calm,-,N/A,,Mostly Cloudy,0,2013-03-29 23:35:00
5:55 PM,53.6,35.6,51,30.14,10.0,Calm,Calm,-,N/A,,Mostly Cloudy,0,2013-03-29 23:55:00
6:15 PM,53.6,35.6,51,30.14,10.0,Calm,Calm,-,N/A,,Overcast,0,2013-03-30 00:15:00
6:35 PM,53.6,35.6,51,30.14,10.0,NNE,4.6,-,N/A,,Mostly Cloudy,20,2013-03-30 00:35:00
6:55 PM,53.6,35.6,51,30.13,10.0,Calm,Calm,-,N/A,,Partly Cloudy,0,2013-03-30 00:55:00
7:15 PM,53.6,35.6,51,30.13,10.0,Calm,Calm,-,N/A,,Mostly Cloudy,0,2013-03-30 01:15:00
7:35 PM,51.8,35.6,54,30.13,10.0,West,4.6,-,N/A,,Mostly Cloudy,280,2013-03-30 01:35:00
7:55 PM,51.8,33.8,50,30.14,10.0,Calm,Calm,-,N/A,,Overcast,0,2013-03-30 01:55:00
8:15 PM,51.8,33.8,50,30.14,10.0,SSW,3.5,-,N/A,,Mostly Cloudy,200,2013-03-30 02:15:00
8:35 PM,48.2,37.4,66,30.14,10.0,Calm,Calm,-,N/A,,Scattered Clouds,0,2013-03-30 02:35:00
8:55 PM,46.4,37.4,71,30.15,10.0,SSE,4.6,-,N/A,,Mostly Cloudy,150,2013-03-30 02:55:00
9:15 PM,46.4,37.4,71,30.16,10.0,SSE,3.5,-,N/A,,Mostly Cloudy,150,2013-03-30 03:15:00
9:55 PM,46.4,35.6,66,30.17,10.0,SW,4.6,-,N/A,,Overcast,220,2013-03-30 03:55:00
10:15 PM,46.4,35.6,66,30.17,10.0,Calm,Calm,-,N/A,,Overcast,0,2013-03-30 04:15:00
10:35 PM,46.4,35.6,66,30.18,10.0,SE,3.5,-,N/A,,Overcast,140,2013-03-30 04:35:00
10:55 PM,46.4,35.6,66,30.18,10.0,Calm,Calm,-,N/A,,Mostly Cloudy,0,2013-03-30 04:55:00
11:15 PM,46.4,33.8,62,30.19,10.0,Calm,Calm,-,N/A,,Scattered Clouds,0,2013-03-30 05:15:00
11:35 PM,42.8,35.6,76,30.19,10.0,Calm,Calm,-,N/A,,Mostly Cloudy,0,2013-03-30 05:35:00
11:55 PM,42.8,35.6,76,30.19,10.0,Calm,Calm,-,N/A,,Scattered Clouds,0,2013-03-30 05:55:00